FENGYUN 1C DEB

Satellite information

Favourite Embed

Satellite Type and Status

DEBRISIN ORBIT

Key statistics

Satellite FENGYUN 1C DEB at a glance.

Uptime

9616

Days in orbit

Revolutions

≈ 14.3

Per day

Orbit

SSO

Sun Synchronous Orbit

Inclination

99.0

Latest

Satellite identification and parameters

Extended collection of information and parameters for FENGYUN 1C DEB.

Object identification

Identified? True

Debris? True

Object name: FENGYUN 1C DEB

International designator: 1999-025BYU

Object number (NORAD): 31553

Object ID (CCSDS): 31553

Country: PEOPLES REPUBLIC OF CHINA (PRC)

Current information (Y/N): Y

RCS size: SMALL

Orbital parameters

Period: 100.768 minutes

Inclination: 99.0113 deg

SMA: 7173.115 km

Apoapsis: 816.719 km

Periapsis: 773.24 km

RAAN: 296.4607 deg

Eccentricy: 0.00303069

Argument of periapsis: 36.7205 deg

Mean anomaly: 353.4677 deg

Mean motion: 14.290292 rev/day

Mean motion (dot): 0.00008157 rev/day2

B* drag term: 0.0032218294 1/REarth

Two-line elements (TLE)

Creation date: Sept. 2, 2025, 10:20 a.m.

Reference frame: TEME

Reference center: EARTH

Epoch: Sept. 2, 2025, 2:52 a.m. UTC

TLE line 0: 0 FENGYUN 1C DEB

TLE line 1: 1 31553U 99025BYU 25245.11968216 .00008157 00000-0 32218-2 0 9993

TLE line 2: 2 31553 99.0113 296.4607 0030307 36.7205 353.4677 14.29029200944586

Live tracking on map

Real-time ground track for satellite FENGYUN 1C DEB.

In-orbit conjunctions

A list of the most updated potential collisions computed for object FENGYUN 1C DEB.

Target Orbit TCA Probability of collision Miss distance Type
SL-12 R/B(AUX MOTOR) LEO 2024-10-14 03:29:10 0.0001102363 82.0 (m) ROCKET BODY
COSMOS 2251 DEB LEO 2024-09-23 23:45:38 0.0001216868 145.0 (m) DEBRIS

Associated space launch

Chinese polar orbiting meteorological satellite

FENGYUN 1C DEB was lifted into orbit during the mission ‘Long March 4B | Feng Yun 1C’, on board a Long March 4B space rocket.

The launch took place on May 10, 1999, 1:33 a.m. from Launch Complex 7.

For more information about the launch, click the button.

Launch to space Long March 4B | Feng Yun 1C
Long March 4B | Feng Yun 1C

Agency: N/A

Status: Launch Successful

Launch date: May 10, 1999, 1:33 a.m. UTC

Rocket: Long March 4B

Launch pad: Launch Complex 7

Location: Taiyuan Satellite Launch Center, People's Republic of China

...

Latest news about this satellite

There are no fresh news available about this satellite. Check back as we update our databases every day.


Newsletter sign-up

Weekly statistics, charts and insights to help you stay on top of the space industry.